WA3JKB Weather Reports


time (UTC)temp
C
wind
direction
speed
KPH
gust
KPH
rain 1hr
cm
rain 24hr
cm
rain mn
cm
humidity
%
barometer
mb
20260510164017 23 270 3.2 9.7 0.00 0.30 0.03 59 1014.1
20260510163017 23 293 3.2 9.7 0.00 0.30 0.03 59 1014.2
20260510162017 23 315 3.2 12.9 0.00 0.33 0.03 59 1014.1
20260510161017 22 248 1.6 6.4 0.00 0.33 0.03 58 1014.2
20260510160017 22 248 3.2 8.0 0.00 0.36 0.03 62 1014.1
20260510155017 22 248 1.6 4.8 0.00 0.38 0.03 66 1014.1
20260510154016 22 293 3.2 8.0 0.00 0.41 0.03 67 1014.2
20260510153017 21 248 1.6 6.4 0.00 0.43 0.03 71 1014.3
20260510152017 21 203 1.6 4.8 0.00 0.43 0.03 71 1014.2
20260510151017 20 270 1.6 6.4 0.00 0.46 0.03 74 1014.2
20260510150017 20 248 1.6 6.4 0.00 0.46 0.03 76 1014.2
20260510145017 19 293 1.6 6.4 0.00 0.48 0.03 79 1014.1
20260510144017 18 0.0 3.2 0.00 0.48 0.03 82 1014.1
20260510143017 17 248 1.6 4.8 0.00 0.48 0.03 85 1014.1
20260510142016 16 293 1.6 4.8 0.00 0.48 0.03 89 1014.3
20260510141016 16 293 1.6 6.4 0.00 0.48 0.03 94 1014.2
20260510140020 15 293 1.6 4.8 0.00 0.48 0.03 96 1014.1
20260510135017 15 0.0 3.2 0.00 0.48 0.03 97 1014.1
20260510134017 15 233 0.0 0.0 0.00 0.48 0.03 97 1014.0
20260510133017 14 233 0.0 0.0 0.00 0.48 0.03 97 1014.0
20260510132017 13 233 0.0 0.0 0.00 0.48 0.03 97 1014.1
20260510131016 13 233 0.0 0.0 0.00 0.48 0.03 97 1014.1
20260510130016 13 233 0.0 0.0 0.00 0.48 0.03 97 1014.1
20260510125017 12 233 0.0 0.0 0.00 0.48 0.03 97 1014.1
20260510124016 12 233 0.0 0.0 0.00 0.48 0.03 97 1014.1
20260510123016 12 233 0.0 0.0 0.00 0.48 0.03 97 1014.0
20260510122017 12 233 0.0 0.0 0.00 0.48 0.03 97 1013.8
20260510121016 11 217 0.0 0.0 0.00 0.48 0.03 97 1013.6
20260510120017 11 0.0 1.6 0.00 0.48 0.03 97 1013.6
20260510115016 11 262 0.0 0.0 0.00 0.48 0.03 97 1013.3
20260510114016 11 262 0.0 0.0 0.00 0.48 0.03 97 1013.1
20260510113018 11 262 0.0 0.0 0.00 0.48 0.03 97 1013.2
20260510112016 11 262 0.0 0.0 0.00 0.48 0.03 97 1013.3
20260510111017 10 262 0.0 0.0 0.00 0.48 0.03 97 1013.0
20260510110017 10 262 0.0 0.0 0.00 0.48 0.03 97 1013.1
20260510105017 10 262 0.0 0.0 0.00 0.48 0.03 97 1012.9
20260510104016 10 0.0 1.6 0.00 0.48 0.03 97 1013.3
20260510103016 10 127 0.0 0.0 0.03 0.48 0.03 97 1012.8
20260510102016 10 127 0.0 0.0 0.03 0.48 0.03 97 1012.6
20260510101017 10 127 0.0 0.0 0.03 0.48 0.03 97 1012.5
20260510100016 10 127 0.0 0.0 0.03 0.48 0.03 97 1012.4
20260510095016 10 127 0.0 0.0 0.03 0.48 0.03 97 1012.3
20260510094017 10 105 0.0 0.0 0.03 0.48 0.03 97 1012.5
20260510093016 10 105 0.0 0.0 0.00 0.46 0.00 97 1012.2
20260510092017 10 105 0.0 0.0 0.00 0.46 0.00 97 1012.2
20260510091016 10 0.0 1.6 0.00 0.46 0.00 97 1012.1
20260510090017 9 0.0 1.6 0.00 0.46 0.00 97 1012.1
20260510085016 9 0.0 1.6 0.00 0.46 0.00 97 1012.2
20260510084017 9 0.0 1.6 0.00 0.46 0.00 97 1012.5
20260510083016 9 157 0.0 0.0 0.00 0.46 0.00 97 1012.6
20260510082017 9 135 1.6 3.2 0.00 0.46 0.00 97 1012.4
20260510081017 9 293 1.6 3.2 0.00 0.46 0.00 96 1012.8
20260510080016 9 68 0.0 0.0 0.00 0.46 0.00 97 1011.7
20260510075016 8 68 0.0 0.0 0.00 0.46 0.00 96 1011.7
20260510074017 8 68 0.0 0.0 0.00 0.46 0.00 96 1011.7
20260510073016 8 68 0.0 0.0 0.00 0.46 0.00 96 1011.5
20260510072016 8 0.0 1.6 0.00 0.46 0.00 96 1011.7
20260510071017 8 150 0.0 0.0 0.00 0.46 0.00 96 1011.6
20260510070016 8 150 0.0 0.0 0.00 0.46 0.00 96 1011.4
20260510065016 8 150 0.0 0.0 0.00 0.46 0.00 96 1011.4
20260510064016 8 150 0.0 0.0 0.00 0.46 0.00 96 1011.4
20260510063016 8 150 0.0 0.0 0.00 0.46 0.00 96 1011.0
20260510062016 8 150 0.0 0.0 0.00 0.46 0.00 96 1011.0
20260510061016 8 150 0.0 0.0 0.00 0.46 0.00 96 1011.1
20260510060016 8 150 0.0 0.0 0.00 0.46 0.00 96 1011.1
20260510055016 8 150 0.0 0.0 0.00 0.46 0.00 96 1011.3
20260510054016 8 150 0.0 0.0 0.00 0.46 0.00 96 1011.3
20260510053016 8 150 0.0 0.0 0.00 0.46 0.00 96 1011.4
20260510052016 8 150 0.0 0.0 0.00 0.46 0.00 96 1011.5
20260510051017 8 150 0.0 0.0 0.00 0.46 0.00 96 1011.5
20260510050016 9 150 0.0 0.0 0.00 0.46 0.00 96 1011.6
20260510045016 9 150 0.0 0.0 0.00 0.46 0.00 96 1011.7
20260510044016 9 150 0.0 0.0 0.00 0.46 0.00 96 1011.7
20260510043016 9 150 0.0 0.0 0.00 0.46 0.00 96 1011.8
20260510042017 10 150 0.0 0.0 0.00 0.46 0.00 96 1011.7
20260510041516 10 150 0.0 0.0 0.00 0.46 0.00 96 1011.7
20260510040516 10 150 0.0 0.0 0.00 0.46 0.00 96 1011.8
20260510035517 10 150 0.0 0.0 0.00 0.46 0.46 96 1011.9
20260510034517 10 150 0.0 0.0 0.00 0.46 0.46 96 1011.9
20260510033516 10 150 0.0 0.0 0.00 0.46 0.46 96 1011.8
20260510032516 10 150 0.0 0.0 0.00 0.46 0.46 96 1011.7
20260510031516 10 150 0.0 0.0 0.00 0.46 0.46 96 1011.6
20260510030516 10 150 0.0 0.0 0.00 0.46 0.46 96 1011.5
20260510025516 10 150 0.0 0.0 0.00 0.46 0.46 96 1011.4
20260510024516 10 150 0.0 0.0 0.00 0.46 0.46 95 1011.3
20260510023515 10 150 0.0 0.0 0.00 0.46 0.46 95 1011.4
20260510022516 10 150 0.0 0.0 0.00 0.46 0.46 95 1011.4
20260510021515 10 150 0.0 0.0 0.00 0.46 0.46 95 1011.3
20260510020515 10 150 0.0 0.0 0.00 0.46 0.46 95 1011.3
20260510015517 10 150 0.0 0.0 0.00 0.46 0.46 95 1011.2
20260510014516 11 150 0.0 0.0 0.00 0.46 0.46 95 1011.2
20260510013516 11 150 0.0 0.0 0.00 0.46 0.46 95 1011.2
20260510012516 11 150 0.0 0.0 0.00 0.46 0.46 95 1011.2
20260510011516 11 150 0.0 0.0 0.00 0.46 0.46 95 1011.0
20260510010516 11 150 0.0 0.0 0.00 0.46 0.46 94 1010.9
20260510005516 11 150 0.0 0.0 0.00 0.46 0.46 94 1010.8
20260510004515 11 150 0.0 0.0 0.00 0.46 0.46 94 1010.7
20260510003515 12 150 0.0 0.0 0.00 0.46 0.46 94 1010.6
20260510002516 12 150 0.0 0.0 0.00 0.46 0.46 94 1010.6
20260510001517 12 150 0.0 0.0 0.00 0.46 0.46 93 1010.6
20260510000515 13 150 0.0 0.0 0.00 0.46 0.46 93 1010.7
20260509235516 13 0.0 1.6 0.00 0.46 0.46 93 1010.6
20260509234516 13 154 0.0 0.0 0.00 0.46 0.46 92 1010.6
20260509233516 13 154 0.0 0.0 0.00 0.46 0.46 92 1010.6
20260509232515 13 154 0.0 0.0 0.00 0.46 0.46 91 1010.6
20260509231515 14 154 0.0 0.0 0.00 0.46 0.46 89 1010.6
20260509230516 15 154 0.0 0.0 0.00 0.46 0.46 89 1010.6
20260509225516 15 0.0 1.6 0.00 0.46 0.46 90 1010.5
20260509224515 15 0.0 1.6 0.00 0.46 0.46 91 1010.5
20260509223516 15 73 0.0 0.0 0.00 0.46 0.46 92 1010.6
20260509222515 15 0.0 1.6 0.00 0.46 0.46 92 1010.5
20260509221515 14 0.0 1.6 0.00 0.46 0.46 92 1010.7
20260509220515 14 135 1.6 4.8 0.00 0.46 0.46 92 1010.5
20260509215515 14 0.0 3.2 0.00 0.46 0.46 92 1010.5
20260509214515 14 0.0 3.2 0.00 0.46 0.46 93 1010.5
20260509213516 13 0.0 1.6 0.00 0.46 0.46 93 1010.5
20260509212517 13 78 0.0 0.0 0.00 0.46 0.46 93 1010.5
20260509211517 13 78 0.0 0.0 0.05 0.46 0.46 92 1010.7
20260509210518 13 78 0.0 0.0 0.05 0.46 0.46 92 1010.8
20260509205517 13 78 0.0 0.0 0.05 0.46 0.46 93 1010.7
20260509204517 13 0.0 1.6 0.08 0.46 0.46 92 1010.7
20260509203517 13 0.0 3.2 0.08 0.46 0.46 93 1010.8
20260509202517 13 0.0 3.2 0.08 0.46 0.46 93 1010.8
20260509201517 13 0.0 1.6 0.03 0.41 0.41 93 1010.7
20260509200517 13 0.0 1.6 0.03 0.41 0.41 93 1010.6
20260509195517 13 0.0 3.2 0.05 0.41 0.41 93 1010.8
20260509194518 13 0.0 3.2 0.05 0.38 0.38 92 1010.8
20260509193517 13 0.0 1.6 0.05 0.38 0.38 93 1010.9
20260509192517 13 87 0.0 0.0 0.05 0.38 0.38 93 1011.3
20260509191517 13 0.0 1.6 0.05 0.38 0.38 92 1011.4
20260509190517 13 215 0.0 0.0 0.05 0.38 0.38 92 1011.5
20260509185517 13 0.0 1.6 0.05 0.36 0.36 92 1011.7
20260509184517 13 0.0 1.6 0.05 0.33 0.33 92 1011.8
20260509183517 13 229 0.0 0.0 0.05 0.33 0.33 92 1011.9
20260509182517 13 229 0.0 0.0 0.10 0.33 0.33 92 1012.0
20260509181517 13 0.0 1.6 0.13 0.33 0.33 92 1012.1
20260509180517 12 0.0 1.6 0.15 0.33 0.33 92 1012.1
20260509175517 13 0.0 1.6 0.13 0.30 0.30 91 1012.3
20260509174517 13 240 0.0 0.0 0.10 0.28 0.28 91 1012.4
20260509173518 13 0.0 1.6 0.10 0.28 0.28 90 1012.4
20260509172517 13 0.0 1.6 0.08 0.23 0.23 89 1012.3
20260509171517 13 225 1.6 3.2 0.05 0.20 0.20 88 1012.2
20260509170521 13 0.0 1.6 0.03 0.18 0.18 89 1012.0
20260509165517 13 240 0.0 0.0 0.05 0.18 0.18 89 1011.9